Lapse_Rate
5.5 6.5 6.5 6.5 6.5 6.5 6.4 6.5 6.6 6.4 6.5 6.5 6.4 6.5 6.5 6.3 6.5 6.3 5.8 6.0 5.7 5.2 6.0 5.7 5.5 5.0 4.2 3.7 2.9 2.9 2.8 2.5 2.5 2.3 2.6 2.9 2.9 2.5 2.1 2.3 3.5 4.2 4.5 4.6
6.5 6.5 6.5 6.5 6.5 6.5 6.5 6.5 6.5 6.5 6.5 6.5 6.5 6.5 6.5 6.3 6.4 6.5 6.3 6.0 5.5 5.0 5.7 5.6 5.3 3.8 3.6 3.8 2.1 2.6 2.7 2.1 2.6 3.0 2.7 2.8 2.5 3.0 3.2 3.0 3.2 4.0 4.2 4.2
6.5 6.5 6.3 6.5 6.5 6.5 6.5 6.5 6.5 6.5 6.5 6.5 6.5 6.5 6.5 6.5 6.0 6.3 6.5 6.1 5.6 5.0 4.5 4.8 5.4 4.2 3.2 3.2 2.7 2.3 2.1 1.9 2.6 2.7 2.3 2.5 3.0 3.2 3.3 3.2 2.8 3.4 4.2 4.2
6.5 6.3 6.5 6.5 6.5 6.5 6.5 6.5 6.5 6.4 6.5 6.4 6.5 6.5 6.5 6.5 6.5 6.4 5.6 5.5 5.4 4.7 5.1 4.3 3.9 5.1 4.4 2.4 2.5 2.5 2.4 1.6 2.6 2.0 3.0 3.4 3.0 3.5 3.2 3.5 3.1 3.4 4.0 4.3
6.5 6.5 6.5 6.5 6.5 6.5 6.5 6.5 6.5 6.5 6.6 6.5 6.5 6.5 6.5 6.5 6.5 6.4 5.9 4.9 4.2 4.6 4.4 4.1 3.7 3.4 4.1 3.2 2.2 2.0 1.8 1.5 2.3 2.0 2.9 3.2 3.0 3.4 3.3 3.5 3.9 3.4 3.5 4.2
6.5 5.9 6.5 6.5 6.5 6.5 6.5 6.5 6.5 6.5 6.4 6.5 6.5 6.5 6.5 6.5 6.5 6.5 5.6 4.3 4.2 3.4 3.6 3.7 3.8 3.6 3.7 2.9 2.6 2.3 2.0 1.4 1.8 1.8 2.5 3.0 3.2 3.2 3.1 3.0 3.4 3.5 3.5 3.7
6.5 6.5 6.4 6.3 6.5 6.5 6.5 6.5 6.5 6.5 6.5 6.5 6.4 6.5 6.5 6.5 6.5 6.4 6.1 4.1 2.9 1.8 1.3 1.0 2.5 3.1 3.6 3.0 2.0 1.7 0.8 1.5 1.5 1.9 2.1 2.4 2.8 3.3 3.2 3.1 2.9 3.1 3.1 3.5
6.5 6.5 6.5 6.5 6.5 6.5 6.5 6.5 6.5 6.5 6.5 6.5 6.5 6.5 6.5 6.5 5.8 4.5 4.2 3.8 4.0 3.0 1.5 0.6 1.3 2.2 2.5 3.0 2.7 1.9 0.9 0.9 0.9 1.3 1.8 2.0 2.5 3.0 3.2 3.0 3.0 2.9 3.3 3.5
6.5 6.4 6.5 6.6 6.5 6.5 6.5 6.5 6.5 6.5 6.5 6.5 6.5 6.5 6.5 6.5 6.5 5.9 4.3 3.4 2.6 3.0 3.3 2.6 0.7 1.5 1.8 2.2 2.3 1.5 -0.1 0.5 0.4 1.1 1.6 1.6 1.9 2.3 2.0 2.0 3.0 3.1 2.9 3.0
6.5 6.5 6.5 6.5 6.3 6.3 6.5 6.5 6.5 6.5 6.5 6.5 6.5 6.5 6.5 6.5 6.5 6.5 5.9 4.0 2.3 1.5 1.6 1.5 0.5 0.1 1.1 1.8 2.0 1.9 0.8 0.4 -0.0 0.3 1.0 1.6 1.5 1.8 1.9 1.5 2.0 2.3 2.9 2.7
6.5 6.5 6.4 6.5 6.5 6.5 6.5 6.5 6.5 6.5 6.5 6.6 6.5 6.5 6.5 6.5 6.5 6.4 5.4 2.8 2.9 2.1 1.1 -0.0 -0.1 -0.3 0.4 1.3 1.3 1.1 1.1 0.9 0.2 -0.3 -0.1 0.5 1.1 1.8 1.3 1.5 1.9 2.1 2.5 2.5
6.5 6.5 6.5 6.5 6.5 6.5 6.5 6.5 6.4 6.5 6.5 6.5 6.6 6.5 6.5 6.5 6.2 5.4 4.5 2.5 2.3 1.5 0.1 -0.1 -0.3 -1.0 -1.1 -0.1 0.1 0.3 0.5 0.8 1.0 0.6 -0.1 -0.0 0.5 1.0 1.1 1.3 1.4 2.1 2.5 2.5
6.5 6.5 6.5 6.5 6.5 6.5 6.6 6.5 6.5 6.5 6.5 6.5 6.5 6.5 6.5 5.9 6.1 4.9 4.1 2.6 2.8 1.4 0.2 -0.4 -0.8 -1.3 -1.6 -1.3 -1.4 -0.0 0.3 0.4 1.3 0.7 0.9 0.8 0.6 0.9 0.9 1.1 1.5 1.9 2.7 3.0
4.6 6.5 6.5 6.5 6.5 6.5 6.5 6.5 6.5 6.5 6.5 6.5 6.5 6.4 6.5 6.5 6.5 5.0 3.5 4.5 4.1 3.8 1.8 1.6 0.9 0.7 0.5 -0.1 -0.6 -0.6 -0.1 0.4 0.6 0.7 0.9 0.8 1.0 1.1 0.6 0.6 0.9 1.2 1.8 2.7
6.5 6.5 6.5 6.5 6.5 6.5 6.5 6.5 6.5 6.5 6.5 6.5 6.5 6.5 6.5 6.5 6.5 5.7 4.6 5.0 4.8 4.6 3.8 3.1 1.1 0.4 -0.6 -0.3 0.2 -0.0 -0.2 -0.5 0.6 0.1 0.1 -0.2 0.6 0.7 0.6 1.1 0.8 0.8 1.3 2.3
6.5 6.5 6.5 6.5 6.5 6.5 6.5 6.5 6.5 6.5 6.5 6.5 6.5 6.5 6.5 6.0 5.3 5.2 4.7 5.2 5.3 5.4 5.0 4.3 2.5 1.3 0.3 -0.7 -1.5 -1.3 -1.2 -0.3 0.6 0.7 0.6 0.9 0.6 0.4 0.2 0.5 0.6 1.1 1.3 1.0
6.5 6.5 6.5 6.5 6.5 6.5 6.5 6.5 6.5 6.4 6.5 6.5 6.5 6.5 6.5 6.5 6.5 6.0 5.4 5.1 5.6 5.5 5.0 4.1 3.4 2.9 1.1 0.1 -0.5 -2.3 -2.1 -1.1 0.3 1.0 1.2 1.0 0.7 0.6 0.6 0.8 0.8 0.9 0.8 1.3
6.5 6.5 6.5 6.6 6.5 6.5 6.5 6.5 6.5 6.5 6.5 6.5 6.5 6.5 6.5 6.5 6.2 5.6 5.1 5.1 5.4 5.3 4.7 4.1 3.7 2.7 1.8 1.6 0.8 -0.1 -1.2 -0.5 -0.0 0.8 1.1 1.1 1.1 1.1 0.9 1.2 1.3 1.5 0.5 1.4
6.5 6.5 6.5 6.5 6.5 6.5 6.5 6.5 6.6 6.5 6.5 6.5 6.4 6.5 6.6 6.6 6.4 5.7 5.2 4.9 4.6 4.6 4.6 4.3 4.3 3.3 1.6 0.7 1.3 0.7 0.1 0.1 0.1 1.0 1.3 1.3 2.0 2.5 2.0 1.4 1.8 2.4 0.6 2.0
6.5 6.5 6.5 6.5 6.6 6.5 6.4 6.5 5.8 6.3 6.5 6.2 5.8 6.0 6.0 5.6 6.5 6.5 4.6 4.7 4.6 4.6 4.3 3.8 3.4 2.3 1.8 1.4 2.1 1.1 0.4 0.7 0.5 0.6 0.9 1.0 1.3 1.7 1.8 2.4 2.6 1.8 1.6 0.1
6.5 6.5 6.5 6.5 6.5 6.5 6.5 6.3 5.3 6.5 6.5 6.3 5.7 5.1 5.8 6.4 4.7 6.1 4.6 4.1 3.9 3.8 3.4 3.3 3.1 2.2 1.9 1.6 1.4 1.0 0.9 -0.1 0.4 1.2 1.3 1.4 1.3 1.8 2.2 2.2 1.6 1.8 2.5 2.3
6.5 6.5 6.5 6.5 6.5 6.5 6.2 6.1 6.5 5.8 4.5 5.1 5.1 4.7 4.8 4.8 5.2 4.5 3.3 3.5 3.3 2.7 2.8 3.0 2.4 2.0 1.1 0.4 0.8 1.4 1.4 1.6 1.1 0.7 1.8 2.1 2.0 2.0 2.5 2.8 2.1 1.8 2.0 1.6
6.5 6.5 6.5 6.5 6.5 6.1 6.0 6.0 4.1 3.6 4.0 4.5 3.8 4.5 3.8 4.1 4.6 5.3 0.6 2.7 4.6 3.6 2.5 2.7 2.2 1.6 0.6 0.4 0.6 1.4 1.8 1.7 1.9 1.6 1.3 1.9 2.6 2.4 1.6 1.6 1.4 1.9 1.6 1.6
6.5 5.5 6.5 6.5 6.4 6.4 6.2 5.4 5.1 4.6 4.7 4.8 4.4 4.4 3.7 3.5 3.6 3.3 4.0 4.9 3.3 3.1 2.5 1.6 1.4 1.2 0.9 1.2 1.4 1.4 1.2 1.2 2.1 2.4 1.9 1.8 1.9 2.4 1.4 1.7 1.4 1.4 1.2 0.7
6.2 6.1 6.5 6.5 6.1 6.1 6.3 5.8 5.7 5.9 5.4 4.6 4.1 3.4 3.1 3.6 3.8 3.6 3.4 2.8 2.6 3.4 2.8 2.2 1.7 2.2 1.9 1.5 1.6 1.9 2.1 1.8 1.8 2.4 2.8 1.9 2.1 1.7 1.9 2.4 1.7 1.4 0.8 0.2
5.5 6.5 6.5 6.5 6.0 6.1 6.4 6.2 5.7 4.2 4.5 4.2 3.5 3.5 3.2 3.0 2.8 2.8 2.3 2.4 2.1 2.2 2.1 1.9 2.3 2.6 2.9 2.8 2.3 1.9 2.4 2.7 2.2 2.2 2.6 3.1 2.6 2.4 1.0 1.6 2.3 0.2 -2.5 -3.1
Wind_Speed
2 4 3 3 1 2 1 2 5 4 2 4 4 5 6 13 12 11 10 11 10 16 8 12 12 12 11 13 12 12 11 9 8 3 3 2 3 2 3 7 7 7 6 5
5 3 4 4 2 2 3 3 5 7 3 1 5 6 5 10 12 16 14 10 13 11 8 10 13 17 13 15 15 14 14 11 10 7 3 2 3 2 2 3 6 7 8 7
5 4 4 3 2 3 2 3 3 5 4 2 2 7 6 2 7 10 12 10 9 13 11 11 15 17 15 15 16 16 16 14 12 10 4 2 2 1 1 2 2 5 7 9
4 4 3 2 2 4 4 2 5 5 1 2 3 3 5 6 7 2 7 9 11 14 12 12 15 16 17 17 14 12 12 13 12 11 9 8 4 4 3 3 3 4 8 8
7 1 2 2 4 3 6 3 4 4 4 3 5 3 4 5 5 4 5 6 8 13 11 17 18 19 15 14 13 9 12 12 11 13 12 9 5 4 3 2 4 4 4 8
6 2 2 5 3 3 6 2 6 5 3 3 4 2 5 1 3 6 6 9 9 9 8 11 14 14 12 12 13 13 12 13 12 13 12 12 11 8 5 4 4 4 3 3
5 4 3 3 5 4 5 5 3 3 4 5 3 2 8 4 3 3 8 11 11 7 5 8 11 12 12 18 17 16 15 14 14 14 13 13 12 11 9 7 5 5 3 3
5 6 6 3 8 4 2 6 5 5 4 4 2 3 4 4 2 6 6 7 6 8 2 7 10 11 13 16 15 18 17 14 14 14 14 12 12 8 8 8 6 5 5 5
5 5 4 4 4 7 2 1 2 7 3 2 2 6 9 4 2 2 7 6 7 6 6 7 7 8 10 13 15 15 14 13 13 13 11 11 10 10 9 8 8 6 7 5
7 0 2 2 3 4 3 3 3 3 4 2 4 5 5 5 5 5 6 7 7 8 7 7 6 8 9 11 10 11 11 13 13 12 10 10 10 10 9 7 9 9 8 7
5 4 5 1 4 8 2 2 6 4 3 5 2 6 8 9 9 6 7 6 7 8 7 6 7 7 9 9 10 11 10 11 11 12 10 11 10 10 9 9 9 10 9 8
7 5 4 10 3 1 3 6 6 5 4 2 3 6 3 10 3 4 7 8 8 8 8 2 3 7 8 10 11 11 11 13 13 11 11 11 9 8 10 10 9 9 10 9
8 2 1 9 6 1 4 5 5 5 4 7 6 6 4 5 2 5 7 8 9 11 9 7 4 4 4 5 6 8 10 11 9 9 11 10 10 10 12 12 11 10 9 9
13 4 8 8 8 5 4 5 4 5 4 6 6 6 5 7 8 6 8 8 8 10 14 10 9 6 3 1 4 6 6 7 8 10 11 12 14 14 12 12 11 10 11 11
7 9 7 6 5 2 1 2 9 8 5 6 6 8 7 4 8 5 6 8 14 15 17 14 12 9 7 4 5 5 6 7 6 8 11 14 10 10 11 11 12 13 11 9
2 4 5 4 5 5 4 4 6 2 3 4 5 2 1 4 13 12 9 12 13 13 14 13 13 12 11 8 6 6 7 5 6 8 11 7 7 9 11 12 12 10 8 8
7 7 5 7 5 7 2 1 3 4 4 3 4 2 3 12 16 10 10 12 11 11 11 13 13 11 12 13 9 8 6 5 8 8 7 7 7 9 11 10 9 10 7 8
6 6 3 4 4 3 4 7 12 12 6 8 1 6 10 16 13 12 10 11 12 11 12 13 12 13 13 12 13 10 8 1 4 4 6 6 7 10 9 9 11 9 8 10
3 5 4 5 4 2 3 6 1 4 4 8 5 13 16 15 16 12 11 10 8 8 10 10 10 10 14 16 13 13 13 10 6 4 5 5 5 8 8 10 12 6 1 7
6 5 4 2 7 7 3 3 5 3 4 6 4 7 4 1 9 3 8 8 11 11 10 11 12 15 15 14 11 13 14 13 13 10 9 6 6 8 9 9 4 3 7 5
4 4 5 3 4 1 1 9 5 4 6 3 4 4 6 10 4 2 6 11 10 11 13 11 13 13 11 12 11 14 13 15 12 12 9 7 4 5 5 3 3 3 4 1
3 3 2 2 5 3 10 4 5 4 5 7 5 6 11 8 7 8 11 11 10 9 11 11 9 9 10 13 13 11 12 11 11 11 11 9 6 3 2 1 2 2 2 2
3 3 5 2 4 3 5 9 9 10 8 5 7 6 7 9 9 5 14 11 7 5 7 8 9 10 11 13 9 10 12 11 10 10 12 11 8 4 4 4 4 4 5 5
6 3 4 4 4 4 9 13 12 11 12 9 8 8 7 7 8 10 6 3 5 10 11 11 11 12 11 10 10 8 10 11 11 9 9 10 7 5 5 5 5 6 7 6
1 5 5 5 4 9 11 10 7 10 10 11 10 11 11 10 10 7 7 11 11 9 10 9 9 8 10 9 9 9 10 10 10 10 6 5 3 2 2 4 5 5 5 6
3 3 4 4 2 8 4 7 9 12 11 11 12 11 13 12 10 10 9 10 11 12 12 11 10 9 10 9 10 10 10 9 9 9 7 5 3 4 4 4 4 8 11 17
Wind_Direction
29 79 208 187 234 157 257 219 260 267 220 176 225 271 211 201 208 213 213 207 215 221 191 197 174 159 188 180 174 186 180 182 168 161 170 212 220 211 236 219 215 234 215 186
20 259 208 140 168 282 266 271 283 289 183 329 17 308 292 197 221 211 212 206 218 230 184 182 173 181 178 185 183 183 189 181 187 182 168 166 160 217 223 201 197 225 202 185
165 210 125 131 59 333 270 183 229 254 3 71 33 333 333 344 254 206 224 224 219 219 207 180 182 192 190 188 186 189 188 185 187 181 141 111 115 95 218 210 188 211 197 189
236 270 239 193 254 173 347 209 255 270 105 244 41 270 301 324 346 193 224 226 224 220 203 193 194 192 198 190 182 187 189 185 187 170 177 185 181 186 204 214 178 189 210 210
236 239 198 148 167 168 240 341 281 206 126 94 359 72 264 345 345 11 335 299 273 242 202 195 192 199 196 165 177 179 182 188 185 181 183 189 190 196 176 188 200 189 209 213
202 315 275 164 250 220 262 59 41 46 82 29 310 110 293 228 252 305 305 306 304 278 224 198 197 193 178 149 127 220 189 192 186 182 183 189 199 196 184 186 200 210 198 212
352 282 266 151 331 356 80 62 352 9 16 215 307 7 239 245 231 261 297 308 310 309 198 171 180 184 169 167 182 190 182 190 187 185 189 193 200 201 200 194 197 196 193 203
154 315 174 184 179 187 159 153 156 189 188 244 310 242 258 216 277 257 281 283 321 355 259 201 192 189 182 175 178 177 187 187 184 188 196 195 198 201 207 199 194 207 209 205
131 264 280 208 153 131 182 159 175 102 12 68 272 295 308 275 148 303 304 325 332 322 300 258 186 186 180 178 182 185 181 184 186 195 192 195 198 198 200 197 198 205 208 212
194 150 245 305 95 49 143 145 74 18 134 237 306 301 240 279 233 275 311 315 328 319 308 288 220 180 182 180 181 183 184 190 185 191 195 193 199 204 203 187 201 205 210 206
128 103 290 130 178 174 62 66 52 110 107 159 185 265 216 224 210 226 276 295 315 297 306 279 254 177 167 168 178 183 182 185 186 190 191 189 194 199 200 204 206 207 208 204
199 157 204 236 226 321 175 168 148 127 214 86 145 272 232 226 174 264 308 332 317 298 306 326 186 153 156 174 181 187 187 194 197 189 188 202 198 191 199 209 212 207 210 206
179 198 60 341 0 70 190 176 127 112 89 187 135 261 307 271 316 359 330 322 326 338 6 38 37 149 171 175 176 189 198 206 198 185 188 193 201 205 205 213 212 212 212 212
127 137 167 198 206 162 171 161 156 120 128 168 218 273 283 264 96 22 12 8 11 10 27 39 37 15 27 279 211 214 214 203 190 188 194 200 204 203 205 213 208 210 206 210
130 189 181 221 213 214 121 159 168 187 176 160 230 204 253 68 114 55 31 27 35 26 27 20 26 20 17 345 263 229 220 198 188 192 201 215 212 206 204 208 208 215 212 204
23 200 148 222 195 179 95 5 131 68 84 295 147 243 77 63 88 59 45 49 35 22 25 22 25 15 7 349 343 272 248 200 182 201 221 220 208 206 212 217 217 203 206 159
151 136 121 240 143 123 24 221 141 122 80 289 166 120 148 87 76 59 52 52 42 26 26 25 25 12 6 3 346 318 279 181 192 206 218 215 203 211 219 226 225 209 186 137
141 115 85 137 72 161 291 101 112 100 45 1 253 148 114 105 95 67 41 48 39 27 28 31 24 18 15 12 14 9 21 202 207 224 233 221 209 221 222 218 227 217 183 200
118 128 89 129 88 101 294 264 108 131 9 7 61 126 132 118 84 46 23 37 34 28 29 35 31 23 20 21 16 27 31 26 29 343 278 258 245 240 230 230 238 231 190 37
80 74 103 126 124 190 226 100 8 121 32 6 65 37 321 46 74 337 348 29 45 47 37 32 33 39 26 14 14 30 29 20 10 336 313 278 237 228 229 242 240 151 144 160
29 21 119 120 111 283 26 301 287 117 177 46 28 54 90 84 111 81 16 36 42 39 35 26 29 35 16 7 22 25 15 12 343 334 325 314 290 259 243 197 187 184 194 273
116 112 109 93 99 185 356 322 170 161 95 100 72 65 74 78 62 65 58 26 13 37 38 32 31 18 12 19 18 11 8 341 340 340 343 336 327 296 277 200 155 111 164 156
41 167 143 85 137 321 319 77 71 83 86 51 77 50 87 66 61 59 68 13 312 11 30 35 31 16 14 11 10 356 334 339 339 349 353 347 338 19 83 116 120 123 128 142
20 23 103 93 336 28 37 59 59 70 80 75 63 62 68 75 50 50 59 250 11 20 17 23 22 15 0 354 344 335 330 338 337 344 349 352 8 71 110 137 144 156 182 163
279 346 115 73 139 95 38 41 59 67 64 65 60 56 49 40 36 35 23 14 18 357 4 10 13 353 335 331 323 324 330 336 336 328 327 336 347 276 266 247 186 207 259 239
2 196 144 181 71 99 76 50 53 61 57 51 47 39 37 33 30 17 19 8 8 358 356 357 349 338 324 317 316 317 319 323 323 323 318 309 283 253 256 271 281 293 279 294